FW6537 Weather Reports


Display with metric or nautical units.
time (UTC)temp
F
wind
direction
speed
MPH
gust
MPH
rain 1hr
in
rain 24hr
in
rain mn
in
humidity
%
barometer
mb
20200410092128 35 93 5.0 16.0 0.01 0.08 0.01 79 992.8
20200410091135 35 129 4.0 11.0 0.01 0.08 0.01 80 992.9
20200410090623 35 97 2.0 14.0 0.01 0.08 0.01 81 992.9
20200410090135 35 120 5.0 14.0 0.01 0.08 0.01 80 992.9
20200410085629 35 106 4.0 12.0 0.01 0.08 0.01 81 992.8
20200410085136 35 127 3.0 11.0 0.01 0.08 0.01 83 992.7
20200410084630 35 98 5.0 16.0 0.01 0.08 0.01 83 992.7
20200410084128 35 126 4.0 9.0 0.00 0.07 0.00 83 992.7
20200410083635 35 155 4.0 9.0 0.00 0.07 0.00 83 992.6
20200410083128 35 129 4.0 8.0 0.00 0.07 0.00 84 992.6
20200410082641 35 111 2.0 11.0 0.00 0.07 0.00 84 992.8
20200410082126 35 163 3.0 11.0 0.00 0.07 0.00 84 992.6
20200410081638 35 158 3.0 8.0 0.00 0.07 0.00 85 992.6
20200410081132 35 131 1.0 16.0 0.00 0.07 0.00 84 992.7
20200410080643 35 132 5.0 16.0 0.00 0.07 0.00 84 992.8
20200410080444 35 136 5.0 14.0 0.00 0.07 0.00 83 992.8
20200410075621 36 141 5.0 15.0 0.00 0.07 0.00 81 992.7
20200410075131 36 150 5.0 15.0 0.00 0.07 0.00 78 992.6
20200410074622 36 132 2.0 14.0 0.00 0.07 0.00 75 992.6
20200410074136 36 109 6.0 14.0 0.00 0.07 0.00 75 992.6
20200410073623 36 133 3.0 7.0 0.00 0.07 0.00 76 992.5
20200410073136 36 106 1.0 6.0 0.00 0.07 0.00 78 992.5
20200410072629 36 149 1.0 8.0 0.00 0.07 0.00 79 992.6
20200410072136 36 118 2.0 15.0 0.00 0.07 0.00 79 992.6
20200410071630 36 127 5.0 15.0 0.00 0.07 0.00 78 992.6
20200410071122 36 160 6.0 13.0 0.00 0.07 0.00 78 992.8
20200410070626 37 132 4.0 9.0 0.00 0.07 0.00 77 992.8
20200410070138 37 141 2.0 8.0 0.00 0.07 0.00 76 992.9
20200410065630 37 113 2.0 8.0 0.00 0.07 0.00 73 992.8
20200410065145 37 117 3.0 10.0 0.00 0.07 0.00 72 992.7
20200410064631 37 146 3.0 10.0 0.00 0.07 0.00 69 992.9
20200410064127 37 105 3.0 8.0 0.00 0.07 0.00 69 992.8
20200410063641 37 139 4.0 8.0 0.00 0.07 0.00 69 992.6
20200410063127 37 191 3.0 7.0 0.00 0.07 0.00 71 992.7
20200410062620 37 133 2.0 6.0 0.00 0.07 0.00 72 992.9
20200410062127 37 108 1.0 14.0 0.00 0.07 0.00 72 993.0
20200410061640 37 123 1.0 14.0 0.00 0.07 0.00 71 993.0
20200410061133 37 148 3.0 7.0 0.00 0.07 0.00 73 993.0
20200410060621 37 110 2.0 13.0 0.00 0.07 0.00 74 993.1
20200410060134 37 138 2.0 13.0 0.00 0.07 0.00 74 993.2
20200410055627 37 210 4.0 10.0 0.00 0.07 0.00 74 993.2
20200410055135 37 127 2.0 16.0 0.00 0.07 0.00 76 993.1
20200410054630 37 66 3.0 14.0 0.00 0.07 0.00 77 993.2
20200410054124 37 90 4.0 14.0 0.00 0.07 0.00 78 993.1
20200410053630 37 103 4.0 14.0 0.00 0.07 0.00 78 993.3
20200410053123 37 148 5.0 14.0 0.00 0.07 0.00 77 993.3
20200410052636 37 92 3.0 11.0 0.00 0.07 0.00 77 993.3
20200410052123 37 124 2.0 11.0 0.00 0.07 0.00 78 993.4
20200410051635 37 111 3.0 11.0 0.00 0.07 0.00 78 993.5
20200410051127 37 129 2.0 11.0 0.00 0.07 0.00 78 993.7
20200410050635 37 117 2.0 13.0 0.00 0.07 0.00 78 993.7
20200410050129 37 105 5.0 13.0 0.00 0.07 0.00 78 993.9
20200410045641 38 179 3.0 10.0 0.00 0.07 0.00 77 994.0
20200410045128 38 184 4.0 16.0 0.00 0.07 0.00 77 993.9
20200410044627 38 157 7.0 16.0 0.00 0.07 0.00 77 993.8
20200410044138 38 178 2.0 8.0 0.00 0.07 0.00 76 993.6
20200410043636 38 131 3.0 14.0 0.00 0.07 0.00 76 993.6
20200410043131 38 159 4.0 14.0 0.00 0.07 0.00 77 993.7
20200410042624 38 108 2.0 12.0 0.00 0.07 0.00 77 993.8
20200410042132 38 251 4.0 12.0 0.00 0.07 0.00 77 993.7
20200410041628 38 113 4.0 9.0 0.00 0.07 0.00 77 993.8
20200410041120 38 100 3.0 9.0 0.00 0.07 0.00 76 993.8
20200410040628 38 105 3.0 9.0 0.00 0.07 0.00 76 993.7
20200410040123 38 102 3.0 10.0 0.00 0.07 0.00 75 993.8
20200410035634 39 97 3.0 10.0 0.00 0.07 0.07 75 993.8
20200410035120 39 82 1.0 11.0 0.00 0.07 0.07 74 993.8
20200410034634 39 89 2.0 11.0 0.00 0.07 0.07 74 993.9
20200410034127 39 163 3.0 9.0 0.00 0.07 0.07 73 993.9
20200410033635 39 92 3.0 10.0 0.00 0.07 0.07 73 994.1
20200410033128 39 129 1.0 10.0 0.00 0.07 0.07 72 994.2
20200410032621 39 118 5.0 12.0 0.00 0.07 0.07 70 994.2
20200410032128 40 108 2.0 12.0 0.00 0.07 0.07 68 994.3
20200410031623 40 95 1.0 5.0 0.00 0.07 0.07 65 994.3
20200410031136 40 91 0.0 5.0 0.00 0.07 0.07 62 994.3
20200410030623 40 89 1.0 6.0 0.00 0.07 0.07 59 994.2
20200410030213 40 108 1.0 6.0 0.00 0.07 0.07 58 994.3
20200410025630 40 103 2.0 6.0 0.00 0.07 0.07 58 994.3
20200410025121 40 100 2.0 6.0 0.00 0.07 0.07 58 994.4
20200410024636 40 112 2.0 8.0 0.00 0.07 0.07 59 994.5
20200410024128 40 107 2.0 8.0 0.00 0.07 0.07 58 994.4
20200410023642 40 63 1.0 8.0 0.00 0.07 0.07 58 994.5
20200410023130 40 139 4.0 8.0 0.00 0.07 0.07 58 994.4
20200410022623 40 127 3.0 11.0 0.00 0.07 0.07 59 994.5
20200410022131 40 101 4.0 11.0 0.00 0.07 0.07 59 994.6
20200410021625 40 117 2.0 10.0 0.00 0.07 0.07 60 994.5
20200410021136 40 152 4.0 10.0 0.00 0.07 0.07 60 994.6
20200410020623 40 117 3.0 10.0 0.00 0.07 0.07 61 994.6
20200410020136 40 84 3.0 10.0 0.00 0.07 0.07 61 994.6
20200410015630 40 120 2.0 7.0 0.00 0.07 0.07 62 994.6
20200410015137 40 69 3.0 7.0 0.00 0.07 0.07 62 994.6
20200410014630 40 110 2.0 7.0 0.00 0.07 0.07 63 994.8
20200410014123 40 110 3.0 7.0 0.00 0.07 0.07 63 994.7
20200410013630 40 110 2.0 7.0 0.00 0.07 0.07 63 994.8
20200410013124 40 110 2.0 7.0 0.00 0.07 0.07 63 994.7
20200410012636 40 110 5.0 7.0 0.00 0.07 0.07 63 994.8
20200410012125 40 113 2.0 5.0 0.00 0.07 0.07 64 994.9
20200410011637 40 134 1.0 6.0 0.00 0.07 0.07 64 994.8
20200410011131 40 125 2.0 6.0 0.00 0.07 0.07 63 994.8
20200410010637 40 145 2.0 9.0 0.00 0.07 0.07 63 994.8
20200410010131 40 115 3.0 9.0 0.00 0.07 0.07 62 994.9
20200410005628 40 155 1.0 6.0 0.00 0.07 0.07 62 994.7
20200410005142 40 99 2.0 6.0 0.00 0.07 0.07 61 994.8
20200410004628 41 122 1.0 9.0 0.00 0.07 0.07 61 994.6
20200410004121 41 108 2.0 7.0 0.00 0.07 0.07 60 994.7
20200410003628 41 118 2.0 6.0 0.00 0.07 0.07 59 994.6
20200410003122 41 101 1.0 7.0 0.00 0.07 0.07 60 994.7
20200410002635 41 117 3.0 8.0 0.00 0.07 0.07 59 994.6
20200410002121 41 124 4.0 9.0 0.00 0.07 0.07 59 994.6
20200410001635 41 117 2.0 9.0 0.00 0.07 0.07 59 994.6
20200410001126 41 128 3.0 6.0 0.00 0.07 0.07 58 994.6
20200410000635 41 126 2.0 7.0 0.00 0.07 0.07 58 994.6
20200410000129 42 123 1.0 7.0 0.00 0.07 0.07 57 994.6
20200409235621 42 188 3.0 10.0 0.00 0.07 0.07 56 994.5
20200409235130 42 117 2.0 10.0 0.00 0.07 0.07 56 994.3
20200409234624 42 153 4.0 10.0 0.00 0.07 0.07 55 994.1
20200409234136 43 124 4.0 14.0 0.00 0.07 0.07 54 994.2
20200409233624 43 155 3.0 13.0 0.00 0.07 0.07 54 994.2
20200409233136 43 125 3.0 11.0 0.00 0.07 0.07 53 994.3
20200409232629 43 297 3.0 12.0 0.00 0.07 0.07 52 994.1
20200409232137 43 113 5.0 12.0 0.00 0.07 0.07 51 994.3
20200409231631 44 97 3.0 12.0 0.00 0.07 0.07 50 994.3
20200409231124 44 158 5.0 12.0 0.00 0.07 0.07 50 994.3
20200409230631 44 135 2.0 15.0 0.00 0.07 0.07 50 994.3
20200409230130 45 108 2.0 14.0 0.00 0.07 0.07 51 994.2
20200409225621 45 97 3.0 13.0 0.00 0.07 0.07 49 994.1
20200409225135 45 122 6.0 20.0 0.00 0.07 0.07 48 994.2
20200409224623 46 141 6.0 20.0 0.00 0.07 0.07 47 994.1
20200409224136 46 172 4.0 10.0 0.00 0.07 0.07 47 994.1
20200409223624 46 130 2.0 14.0 0.00 0.07 0.07 47 994.2
20200409223138 46 94 5.0 14.0 0.00 0.07 0.07 46 994.2
20200409222629 47 103 5.0 12.0 0.00 0.07 0.07 46 994.1
20200409222144 47 31 4.0 16.0 0.00 0.07 0.07 46 993.8
20200409221621 47 168 6.0 16.0 0.00 0.07 0.07 45 994.0
20200409221132 47 172 5.0 18.0 0.00 0.07 0.07 46 994.1
20200409220624 48 169 4.0 18.0 0.00 0.07 0.07 45 994.1
20200409220133 48 105 6.0 18.0 0.00 0.07 0.07 43 994.2
20200409215625 48 128 7.0 15.0 0.00 0.07 0.07 42 994.1
20200409215137 48 89 5.0 20.0 0.00 0.07 0.07 40 994.2
20200409214625 48 144 5.0 20.0 0.00 0.07 0.07 40 994.0
20200409214137 48 338 7.0 19.0 0.00 0.07 0.07 41 994.0
20200409213630 48 93 6.0 19.0 0.00 0.07 0.07 39 993.9
20200409213138 48 153 6.0 24.0 0.00 0.07 0.07 38 993.8
20200409212630 49 133 5.0 17.0 0.00 0.07 0.07 39 993.9
20200409212122 49 291 5.0 17.0 0.00 0.07 0.07 39 993.9
20200409211630 49 221 7.0 17.0 0.00 0.07 0.07 38 993.7
20200409211139 48 134 3.0 16.0 0.00 0.07 0.07 41 993.8
20200409210632 48 155 6.0 20.0 0.00 0.07 0.07 38 994.1
20200409210125 48 112 8.0 21.0 0.00 0.07 0.07 39 993.9
20200409205636 48 174 7.0 21.0 0.00 0.07 0.07 39 993.6
20200409205130 48 195 8.0 18.0 0.00 0.07 0.07 40 993.6
20200409204645 48 134 8.0 27.0 0.00 0.07 0.07 40 993.6
20200409204127 48 112 9.0 19.0 0.00 0.07 0.07 40 993.7
20200409203620 48 181 6.0 20.0 0.00 0.07 0.07 41 993.9
20200409203134 48 183 10.0 20.0 0.00 0.07 0.07 44 993.8
20200409202713 48 111 3.0 18.0 0.00 0.07 0.07 45 993.9
20200409202135 48 114 6.0 18.0 0.00 0.07 0.07 45 993.9
20200409201630 48 249 5.0 16.0 0.00 0.07 0.07 46 993.9
20200409201136 48 169 5.0 21.0 0.00 0.07 0.07 46 993.7
20200409200629 47 182 6.0 27.0 0.00 0.07 0.07 46 993.8
20200409200124 48 136 7.0 27.0 0.00 0.07 0.07 45 993.7
20200409195629 48 131 7.0 14.0 0.00 0.07 0.07 45 993.8
20200409195123 48 153 4.0 19.0 0.00 0.07 0.07 48 993.8
20200409194655 47 152 8.0 20.0 0.00 0.07 0.07 46 993.7
20200409194132 47 158 7.0 25.0 0.00 0.07 0.07 50 993.7
20200409193626 47 102 6.0 25.0 0.00 0.07 0.07 50 994.0
20200409193141 48 182 4.0 15.0 0.01 0.07 0.07 52 994.0
20200409192626 47 181 2.0 12.0 0.01 0.07 0.07 56 993.9
20200409192120 46 103 4.0 12.0 0.01 0.07 0.07 58 994.0
20200409191623 46 64 6.0 11.0 0.01 0.07 0.07 57 993.9
20200409191130 45 115 3.0 12.0 0.01 0.07 0.07 61 994.2
20200409190624 45 127 5.0 16.0 0.01 0.07 0.07 63 994.0
20200409190122 45 159 8.0 15.0 0.01 0.07 0.07 61 994.1
20200409185633 45 181 4.0 18.0 0.01 0.07 0.07 63 994.1
20200409185121 44 115 7.0 18.0 0.01 0.07 0.07 63 994.1
20200409184647 45 73 4.0 15.0 0.01 0.07 0.07 65 994.2
20200409184128 44 130 7.0 22.0 0.01 0.07 0.07 65 993.9
20200409183642 43 194 7.0 24.0 0.00 0.06 0.06 67 994.4
20200409183129 43 288 5.0 18.0 0.00 0.06 0.06 69 994.2
20200409182622 43 102 5.0 14.0 0.00 0.06 0.06 70 994.2
20200409182130 43 77 5.0 15.0 0.00 0.06 0.06 71 994.0
20200409181624 43 172 6.0 16.0 0.00 0.06 0.06 70 994.1
20200409181137 42 135 6.0 16.0 0.00 0.06 0.06 71 993.9
20200409180625 42 82 2.0 14.0 0.00 0.06 0.06 74 994.0
20200409180138 43 124 5.0 12.0 0.00 0.06 0.06 73 993.8
20200409175630 43 122 4.0 18.0 0.00 0.06 0.06 76 993.8
20200409175137 42 147 5.0 18.0 0.00 0.06 0.06 77 993.8
20200409174632 41 158 7.0 14.0 0.00 0.06 0.06 78 993.8
20200409174124 41 165 4.0 13.0 0.00 0.06 0.06 79 993.6
20200409173632 40 131 4.0 16.0 0.00 0.06 0.06 80 993.7
20200409173127 40 145 3.0 11.0 0.00 0.06 0.06 81 994.0
20200409172640 40 311 3.0 11.0 0.00 0.06 0.06 82 993.7
20200409172126 39 141 3.0 13.0 0.00 0.06 0.06 84 993.8
20200409171639 39 134 2.0 13.0 0.00 0.06 0.06 84 993.9
20200409171128 39 139 5.0 13.0 0.00 0.06 0.06 85 993.9
20200409170635 39 167 3.0 10.0 0.00 0.06 0.06 87 993.9
20200409170134 39 166 3.0 15.0 0.00 0.06 0.06 87 993.8
20200409165626 39 169 4.0 15.0 0.00 0.06 0.06 87 993.6
20200409165134 39 166 5.0 14.0 0.00 0.06 0.06 87 993.5
20200409164629 39 99 3.0 12.0 0.00 0.06 0.06 86 993.6
20200409164122 39 108 2.0 10.0 0.00 0.06 0.06 87 993.7
20200409163627 40 129 5.0 13.0 0.01 0.06 0.06 86 993.5
20200409163138 40 131 4.0 15.0 0.01 0.06 0.06 85 992.9
20200409162631 40 117 3.0 15.0 0.01 0.06 0.06 86 992.9
20200409162146 41 126 6.0 13.0 0.01 0.06 0.06 85 992.9
20200409161631 41 155 5.0 13.0 0.01 0.06 0.06 87 992.4
20200409161124 41 186 6.0 16.0 0.01 0.06 0.06 86 992.2
20200409160632 41 120 7.0 16.0 0.01 0.06 0.06 85 992.1
20200409160126 41 116 5.0 16.0 0.01 0.06 0.06 86 992.1
20200409155639 41 166 8.0 18.0 0.01 0.06 0.06 86 992.2
20200409155127 41 158 9.0 18.0 0.01 0.06 0.06 86 992.1
20200409154639 41 147 4.0 21.0 0.01 0.06 0.06 88 991.8
20200409154130 42 132 7.0 21.0 0.01 0.06 0.06 86 991.5
20200409153638 42 110 7.0 22.0 0.00 0.05 0.05 85 991.5
20200409153132 43 114 6.0 16.0 0.00 0.05 0.05 85 991.3
20200409152645 44 93 5.0 13.0 0.00 0.05 0.05 84 991.2
20200409152123 44 99 4.0 13.0 0.00 0.05 0.05 86 990.6
20200409151634 45 168 6.0 13.0 0.00 0.05 0.05 86 990.8
20200409151127 46 129 5.0 16.0 0.01 0.05 0.05 84 990.5
20200409150634 47 110 5.0 19.0 0.02 0.05 0.05 84 990.2
20200409150132 48 204 8.0 19.0 0.02 0.05 0.05 83 989.7
20200409145625 49 88 5.0 13.0 0.02 0.05 0.05 82 989.6
20200409145132 49 125 4.0 17.0 0.02 0.05 0.05 81 989.3
20200409144625 50 148 5.0 18.0 0.02 0.05 0.05 80 989.1
20200409144138 50 155 6.0 17.0 0.02 0.05 0.05 81 988.8
20200409143655 50 222 4.0 16.0 0.02 0.05 0.05 83 988.9
20200409143136 50 157 3.0 9.0 0.02 0.05 0.05 82 989.1
20200409142626 50 14 3.0 9.0 0.02 0.05 0.05 84 989.0
20200409142133 50 79 4.0 11.0 0.02 0.05 0.05 83 988.9
20200409141628 50 132 4.0 12.0 0.02 0.05 0.05 83 989.1
20200409141130 51 134 3.0 10.0 0.01 0.04 0.04 83 988.9
20200409140629 51 135 4.0 10.0 0.01 0.03 0.03 81 989.0
20200409140123 51 112 4.0 10.0 0.01 0.03 0.03 81 989.0
20200409135635 51 162 3.0 9.0 0.02 0.03 0.03 80 988.7
20200409135122 51 184 3.0 9.0 0.02 0.03 0.03 81 988.4
20200409134637 51 162 1.0 4.0 0.02 0.03 0.03 83 988.3
20200409134130 50 174 2.0 5.0 0.02 0.03 0.03 85 988.4
20200409133636 50 167 2.0 5.0 0.02 0.03 0.03 85 988.3
20200409133126 50 175 1.0 8.0 0.02 0.03 0.03 85 988.4
20200409132637 50 171 3.0 11.0 0.03 0.03 0.03 84 988.7
20200409132142 50 216 4.0 11.0 0.03 0.03 0.03 85 988.6
20200409131628 49 194 5.0 14.0 0.03 0.03 0.03 85 988.8
20200409131141 49 126 5.0 14.0 0.03 0.03 0.03 85 988.8
20200409130629 50 188 3.0 14.0 0.02 0.02 0.02 85 988.8
20200409130127 50 125 7.0 11.0 0.01 0.01 0.01 83 989.2
20200409125621 50 151 5.0 9.0 0.01 0.01 0.01 82 989.3
20200409125130 50 175 2.0 7.0 0.01 0.01 0.01 82 989.4
20200409124621 50 186 3.0 8.0 0.01 0.01 0.01 80 989.5
20200409124135 50 170 3.0 9.0 0.01 0.01 0.01 80 989.4
20200409123621 50 184 3.0 7.0 0.01 0.01 0.01 80 989.6
20200409123136 50 75 3.0 8.0 0.00 0.00 0.00 80 989.8
20200409122628 49 127 4.0 8.0 0.00 0.00 0.00 79 989.3
20200409122136 49 261 2.0 8.0 0.00 0.00 0.00 80 989.5
20200409121628 49 155 2.0 6.0 0.00 0.00 0.00 80 989.3
20200409121121 49 229 0.0 3.0 0.00 0.00 0.00 78 989.6
20200409120629 49 200 1.0 5.0 0.00 0.00 0.00 77 989.8
20200409120123 49 101 1.0 5.0 0.00 0.00 0.00 77 989.9
20200409115635 49 78 1.0 2.0 0.00 0.00 0.00 76 990.2
20200409115123 49 32 1.0 3.0 0.00 0.00 0.00 76 990.2
20200409114637 49 64 1.0 6.0 0.00 0.00 0.00 75 990.1
20200409114129 49 52 2.0 6.0 0.00 0.00 0.00 74 990.5
20200409113635 50 177 2.0 6.0 0.00 0.00 0.00 73 990.8
20200409113129 49 115 1.0 4.0 0.00 0.00 0.00 74 991.0
20200409112622 49 125 1.0 3.0 0.00 0.00 0.00 76 991.1
20200409112129 49 208 0.0 3.0 0.00 0.00 0.00 76 991.5
20200409111624 49 117 1.0 6.0 0.00 0.00 0.00 76 992.1
20200409111121 49 192 1.0 6.0 0.00 0.00 0.00 76 992.2
20200409110634 49 99 2.0 8.0 0.00 0.00 0.00 76 992.5
20200409110122 49 193 3.0 9.0 0.00 0.00 0.00 76 992.6
20200409105635 49 105 4.0 12.0 0.00 0.00 0.00 76 992.4
20200409105129 49 193 5.0 12.0 0.00 0.00 0.00 75 992.7
20200409104637 48 356 4.0 8.0 0.00 0.00 0.00 76 992.7
20200409104129 47 72 3.0 7.0 0.00 0.00 0.00 78 993.2
20200409103642 47 49 2.0 7.0 0.00 0.00 0.00 81 993.4
20200409103129 46 63 2.0 7.0 0.00 0.00 0.00 83 993.5
20200409102620 45 281 1.0 3.0 0.00 0.00 0.00 86 993.8
20200409102134 44 121 0.0 3.0 0.00 0.00 0.00 88 993.8
20200409101622 43 114 0.0 1.0 0.00 0.00 0.00 90 993.9
20200409101134 44 114 0.0 1.0 0.00 0.00 0.00 89 994.1
20200409100622 44 113 0.0 0.0 0.00 0.00 0.00 89 994.4
20200409100136 44 113 0.0 1.0 0.00 0.00 0.00 89 994.5
20200409095630 44 113 0.0 2.0 0.00 0.00 0.00 89 994.4
20200409095144 44 95 1.0 2.0 0.00 0.00 0.00 89 994.3
20200409094633 44 94 0.0 2.0 0.00 0.00 0.00 88 994.0
20200409094126 44 95 0.0 0.0 0.00 0.00 0.00 89 994.1
20200409093640 44 95 0.0 1.0 0.00 0.00 0.00 89 994.2
20200409093131 43 89 0.0 1.0 0.00 0.00 0.00 89 994.3
20200409092625 43 77 0.0 0.0 0.00 0.00 0.00 90 994.2